Location: Bucquoy
(50.1391°N, 2.7097°E)
Time: 22:43:14
(UTC+00:00)

Cosmos 2227 Rocket - Pass Details

Date: 06 May 2021
Orbit: 840 x 844 km, 71.0° (Epoch: 21 June)

Event Time Altitude Azimuth Distance (km) Brightness Sun altitude
Rises 02:09:26 0° 332° (NNW) 3,406 5.7 -16.2°
Reaches altitude 10° 02:11:58 10° 338° (NNW) 2,468 5.0 -15.9°
Maximum altitude 02:17:29 50° 54° (NE) 1,061 3.1 -15.4°
Drops below altitude 10° 02:22:57 10° 129° (SE) 2,455 4.6 -14.9°
Sets 02:25:28 0° 135° (SE) 3,387 5.3 -14.6°
